Overview Statistics Trail Chart Weather Telemetry Raw packets
 

This is the latest recevied weather packets stored in our database for station/object WX6HNX-6. If no packets are shown the sender has not sent any weather packets the latest 10 day(s).

<< 19 20 21 22 23 24 25 >>
Time Temp. Humidity Pressure Rain* Wind** Luminosity Snow
1777678786 31.67° C 26% 1010 hPa 0 mm - - -
1777678487 31.67° C 27% 1010 hPa 0 mm - - -
1777678187 31.67° C 26% 1010 hPa 0 mm - - -
1777677886 31.67° C 26% 1010 hPa 0 mm - - -
1777677586 32.22° C 25% 1010.1 hPa 0 mm - - -
1777677286 32.22° C 24% 1010.2 hPa 0 mm - - -
1777676986 32.22° C 23% 1010.2 hPa 0 mm - - -
1777676686 32.22° C 24% 1010.2 hPa 0 mm - - -
1777676386 32.22° C 20% 1010.3 hPa 0 mm - - -
1777675700 32.22° C 21% 1010.5 hPa 0 mm - - -
1777675414 32.22° C 21% 1010.5 hPa 0 mm - - -
1777675099 32.22° C 23% 1010.6 hPa 0 mm - - -
1777674690 32.22° C 23% 1010.8 hPa 0 mm - - -
1777674390 32.22° C 21% 1010.9 hPa 0 mm - - -
1777674107 32.22° C 24% 1011 hPa 0 mm - - -
1777673791 33.33° C 24% 1011.1 hPa 0 mm - - -
1777673490 33.33° C 23% 1011.2 hPa 0 mm - - -
1777672890 32.22° C 23% 1011.4 hPa 0 mm - - -
1777672590 32.22° C 25% 1011.5 hPa 0 mm - - -
1777672290 32.22° C 26% 1011.6 hPa 0 mm - - -
1777671991 32.22° C 26% 1011.6 hPa 0 mm - - -
1777671390 31.67° C 29% 1011.6 hPa 0 mm - - -
1777671090 31.11° C 30% 1011.7 hPa 0 mm - - -
1777670791 31.11° C 31% 1011.7 hPa 0 mm - - -
1777670490 30.56° C 33% 1011.8 hPa 0 mm - - -

* Rain latest hour (hover to see other rain measurements)
** Current wind speed in m/s (hover to see current wind gust speed)